Theta_e
308 307 307 307 307 307 306 306 307 307 306 306 305 306 306 307 308 306 306 306 307 307 306 307 307 308 309 310 311 312 315 316 317 317 316 312 310 309 308 308 307 306 305
305 306 306 305 305 305 306 307 306 307 307 307 306 307 308 308 307 305 306 305 305 306 306 307 307 306 307 308 309 310 311 314 315 316 314 311 308 307 307 306 305 305 304
306 305 305 305 305 306 307 307 308 308 308 308 308 308 307 307 306 306 305 305 305 305 305 306 305 305 305 306 306 306 309 312 313 316 312 310 308 306 306 306 305 305 304
305 305 305 306 306 307 307 308 308 308 308 308 308 309 308 306 305 306 305 304 304 304 304 305 305 305 305 304 305 305 306 308 313 313 311 309 308 307 307 306 305 304 303
305 306 307 307 308 308 308 308 308 309 308 308 308 308 308 306 306 306 305 304 305 305 304 305 303 303 303 304 304 304 304 305 310 311 310 309 308 308 307 306 305 302 301
306 307 307 307 308 308 307 308 308 308 308 309 308 308 305 304 305 306 306 305 305 305 305 304 302 301 301 305 304 304 304 304 307 310 310 309 308 307 307 306 304 303 302
307 307 307 307 307 307 308 308 308 308 308 308 308 306 304 304 305 307 306 306 305 303 301 301 301 300 301 305 305 305 305 306 306 307 310 308 308 307 307 307 306 307 301
307 307 307 307 307 307 307 308 307 308 308 308 307 307 304 303 306 307 307 307 306 302 301 300 300 300 301 305 305 305 306 307 308 309 310 309 309 307 308 308 307 304 302
307 307 307 307 307 307 307 305 306 307 308 308 306 305 304 303 303 305 307 307 305 302 301 300 300 301 302 303 304 305 305 307 309 310 309 308 307 308 309 307 306 305 304
306 306 306 306 306 305 304 304 306 306 306 306 306 305 304 303 303 303 304 306 305 302 301 300 300 302 303 303 304 305 306 306 306 307 308 308 309 310 309 307 306 307 305
305 305 306 306 306 304 302 303 304 303 303 301 301 302 302 301 302 302 302 303 303 301 300 300 300 302 303 303 304 305 306 305 305 306 306 305 306 306 307 308 308 306 305
304 305 306 305 305 304 301 301 302 301 301 301 300 300 300 299 300 301 302 302 301 300 299 299 300 302 303 303 304 305 306 306 305 304 302 300 300 300 301 303 304 304 304
304 304 305 304 303 303 301 301 300 300 300 299 300 300 300 299 299 300 301 301 300 300 299 299 301 303 303 303 305 306 305 304 303 302 301 300 300 299 299 299 300 300 301
304 304 305 304 302 301 301 300 299 299 299 299 299 299 299 299 300 300 300 301 300 300 299 300 302 303 303 303 304 304 303 303 302 301 301 300 300 300 300 300 300 300 298
305 305 305 304 303 302 301 300 299 299 298 298 298 299 298 299 299 299 299 299 299 299 300 301 303 303 303 303 303 303 303 302 302 301 300 300 299 299 299 300 300 299 299
304 304 303 302 301 301 300 300 299 298 298 299 299 300 298 298 298 298 298 298 298 300 301 301 301 302 302 302 302 302 302 301 301 300 300 300 300 300 299 299 300 300 300
304 302 301 301 301 300 300 300 299 299 299 299 300 300 300 299 300 299 299 299 300 301 301 301 301 302 302 303 303 303 302 301 301 301 300 300 300 300 300 300 299 299 299
302 301 300 300 300 299 299 299 299 299 299 299 300 301 301 302 301 301 300 300 300 301 301 301 302 303 303 304 304 302 301 301 301 301 301 301 301 301 299 298 299 299 300
300 300 300 299 300 300 301 301 300 300 300 300 301 302 303 303 303 302 302 302 301 301 301 302 303 304 304 304 303 302 302 302 302 302 302 302 301 299 299 300 302 303 303
301 301 302 302 302 302 302 301 301 300 301 301 302 302 303 303 303 303 303 302 302 302 303 304 304 304 304 303 303 303 303 303 303 303 303 302 300 301 301 301 302 303 303
302 303 303 303 303 303 303 303 302 301 301 301 302 302 303 303 302 302 303 303 303 304 304 304 305 305 305 305 305 305 305 305 305 305 304 302 300 300 301 303 303 303 304
303 303 304 304 304 304 304 303 303 302 302 302 301 302 303 303 303 303 303 304 304 305 305 305 306 306 306 306 306 305 305 305 305 303 302 301 301 302 303 304 304 305 306
304 304 304 305 305 305 305 304 304 303 303 303 302 302 303 303 304 304 304 305 305 306 306 307 307 307 307 307 307 307 307 307 307 306 306 306 306 305 304 305 307 305 307
304 304 304 304 305 306 306 306 305 304 304 303 303 303 303 304 303 304 304 304 304 305 306 307 308 308 308 309 308 307 306 306 306 307 306 306 305 305 306 306 304 303 304
304 304 304 304 305 305 306 306 306 305 305 304 304 304 304 303 304 304 304 303 303 303 304 305 305 306 306 306 307 307 307 307 307 308 308 307 306 306 302 302 302 302 302
304 304 304 302 303 304 305 304 305 305 305 305 304 304 303 303 303 303 302 302 303 303 304 305 305 306 307 307 306 306 307 307 307 307 306 305 304 302 301 300 299 298 298
Wind_Speed
16 17 17 17 17 16 15 12 14 14 16 17 14 17 20 21 19 20 17 17 15 15 17 15 13 12 11 11 12 11 11 3 2 1 7 24 24 24 22 24 25 25 22
19 18 21 19 17 15 15 17 17 15 16 16 18 20 19 18 13 16 16 16 15 15 17 11 11 11 12 12 11 13 14 8 6 3 11 16 22 25 25 23 22 25 23
16 20 18 17 16 18 20 20 19 18 17 17 17 17 15 12 13 13 15 17 14 12 13 14 14 17 16 15 14 14 12 9 7 2 7 17 19 24 27 24 24 23 19
18 17 18 20 21 23 21 19 18 17 15 13 13 14 10 11 11 10 12 14 14 15 14 14 16 17 17 16 15 16 14 12 10 5 12 17 19 21 21 15 18 19 17
18 21 23 22 21 20 18 17 16 15 13 12 12 9 6 11 10 8 7 8 10 11 12 13 13 14 15 10 12 15 15 12 9 8 8 14 16 15 14 15 17 19 14
20 23 20 19 20 20 19 16 15 12 12 12 9 7 9 10 10 7 5 5 9 10 12 12 15 17 17 10 12 11 8 9 6 2 8 11 10 17 20 17 17 10 3
21 19 18 18 18 19 15 13 14 14 11 9 8 8 12 12 12 11 5 2 5 8 10 14 16 16 15 12 11 11 6 5 4 1 13 14 16 19 22 18 14 4 9
18 16 17 16 15 16 14 13 15 13 9 10 7 6 11 14 14 13 2 6 4 5 11 15 16 16 14 11 10 12 8 4 1 4 12 14 17 19 18 13 11 15 15
16 16 18 14 12 14 16 19 16 16 12 7 7 9 9 15 15 12 7 5 7 5 11 15 16 16 14 7 8 8 9 10 8 11 15 20 20 14 12 16 18 15 5
17 16 13 9 11 14 15 17 14 14 12 10 10 9 11 11 14 13 9 4 6 3 9 12 15 17 12 10 8 11 15 17 29 29 27 21 14 12 14 12 13 7 9
14 14 10 10 11 12 15 14 13 13 13 16 14 13 12 13 11 10 9 7 5 5 10 12 14 16 14 12 12 16 19 24 27 28 24 20 18 16 14 10 7 5 8
14 11 9 11 11 12 13 13 14 14 15 16 17 17 15 14 12 9 8 8 5 9 10 11 11 12 15 12 16 20 23 25 25 25 24 21 21 20 17 16 15 16 16
11 13 7 9 9 9 14 16 17 18 19 14 13 11 14 14 15 9 9 9 8 11 10 10 10 12 17 19 19 22 23 24 23 22 20 20 18 16 19 22 23 24 24
12 9 7 7 10 11 13 15 14 18 16 15 15 13 12 14 12 12 10 8 9 10 10 11 12 19 22 22 22 22 22 21 21 21 20 16 16 18 21 23 27 28 30
12 12 11 8 9 10 12 12 12 14 13 14 17 16 11 11 11 11 10 10 10 10 13 15 18 21 21 22 22 21 20 19 19 17 18 18 19 20 20 17 18 18 18
11 12 11 11 11 11 11 11 12 11 11 15 18 18 17 15 15 14 13 13 14 16 20 19 19 19 19 19 20 20 17 16 17 18 19 20 20 21 21 19 19 19 17
12 12 12 12 12 12 12 12 12 13 11 14 17 17 14 12 16 16 17 18 19 21 21 19 18 19 19 20 20 19 18 17 17 19 19 19 20 19 19 17 15 15 13
14 15 14 13 12 13 13 13 13 13 12 14 15 14 14 18 16 14 18 21 22 21 21 19 19 19 19 18 17 17 17 17 18 18 18 18 16 16 18 17 15 14 13
16 16 16 16 17 14 14 16 15 15 16 17 16 18 21 24 22 22 21 22 19 18 18 18 18 17 16 15 15 16 17 17 17 16 15 16 18 19 17 15 14 14 14
19 19 18 17 13 15 18 17 17 17 19 19 18 19 21 24 24 24 23 22 21 20 19 18 16 15 16 17 18 17 17 16 15 16 17 18 17 15 12 10 11 11 11
18 19 22 22 23 21 19 19 19 20 20 20 17 16 20 26 24 24 25 24 23 19 17 17 19 22 20 19 18 16 16 16 17 17 17 14 10 7 6 7 8 9 9
19 17 21 26 25 24 23 22 20 21 20 20 19 18 20 24 28 28 25 22 20 21 20 18 15 14 13 13 14 16 16 16 14 12 10 8 4 4 8 13 16 14 8
17 18 21 25 24 25 25 25 24 24 23 25 25 24 26 27 24 25 24 22 21 20 18 18 19 19 18 17 16 16 14 12 9 7 5 6 8 12 17 21 16 17 14
14 14 16 16 16 20 25 23 22 22 22 26 26 26 27 26 25 24 24 23 21 20 19 17 15 15 15 15 15 15 14 12 11 9 7 10 12 15 14 16 19 22 24
9 13 16 14 11 11 10 12 17 19 17 25 26 24 22 21 21 21 21 23 25 26 24 22 19 18 18 16 14 12 9 9 9 8 10 13 18 21 21 21 22 21 20
7 10 14 19 14 10 14 19 23 26 25 22 24 25 24 24 24 24 25 27 28 28 27 27 27 28 26 23 20 19 18 17 20 21 20 19 19 20 20 21 22 23 23
Wind_Direction
8 358 350 343 339 338 341 347 345 341 347 356 351 347 344 338 340 346 345 349 346 340 339 337 341 341 345 340 350 355 347 294 268 100 118 137 126 122 116 108 105 97 86
358 352 347 343 339 343 346 346 346 344 343 342 344 343 344 346 348 355 1 353 354 354 358 7 14 358 1 355 356 3 3 351 345 94 117 119 122 123 117 109 103 98 90
0 350 355 355 352 345 341 342 346 342 337 334 335 345 349 359 356 5 12 13 14 7 17 28 24 18 12 3 3 3 1 6 355 94 115 123 122 126 119 116 109 99 84
358 2 349 347 341 339 343 348 351 347 342 341 341 346 351 355 355 4 12 30 39 38 38 36 28 15 2 359 358 3 358 353 2 123 128 121 129 134 127 120 99 98 91
356 348 349 353 353 356 358 355 350 348 350 346 342 355 1 354 359 358 7 21 20 22 27 21 17 3 0 347 352 352 0 355 9 122 109 129 134 134 125 127 111 105 88
348 349 356 357 357 356 352 350 353 355 359 358 11 59 16 357 350 336 327 4 6 14 6 5 1 0 1 358 358 357 350 345 343 130 124 136 128 132 141 132 134 131 121
347 354 356 352 351 357 2 6 8 6 7 53 61 49 27 11 359 340 298 231 35 25 19 10 359 354 356 352 359 359 354 326 272 308 149 136 135 151 153 154 165 119 120
352 350 350 354 1 5 16 15 18 22 39 67 53 34 25 29 20 8 6 163 142 55 25 17 5 1 360 356 356 357 5 348 164 120 167 156 154 156 158 167 165 122 119
355 343 348 356 360 11 25 27 21 25 38 61 42 34 39 30 28 29 43 171 157 59 22 18 15 12 4 6 2 29 55 74 104 117 121 131 132 140 150 151 138 125 109
356 3 5 25 31 39 35 30 35 49 53 52 51 45 40 42 33 32 32 61 136 53 11 18 20 15 23 29 48 74 71 87 105 105 110 115 119 134 157 164 154 131 115
354 16 35 31 39 47 34 38 56 58 51 35 31 35 31 18 27 30 39 68 96 66 40 23 26 24 32 49 70 89 88 102 102 106 103 95 95 96 101 129 169 157 136
350 8 40 53 65 46 41 43 44 43 39 34 30 28 23 21 23 39 42 52 79 63 47 36 35 43 51 66 90 104 110 113 107 93 87 77 77 80 83 92 99 99 97
356 15 50 66 65 55 48 49 48 40 34 21 9 358 11 23 26 43 60 75 81 66 51 50 55 67 77 81 101 108 106 100 90 82 80 82 85 94 99 94 93 91 90
17 19 42 82 78 68 49 42 40 33 24 15 9 359 4 21 29 40 64 83 94 65 62 69 71 78 82 88 93 93 93 95 92 93 96 97 99 97 94 97 94 95 93
49 61 59 71 55 45 47 43 49 36 25 18 13 10 8 25 38 62 69 79 86 82 90 90 81 73 70 76 83 86 87 90 92 96 96 94 91 93 89 94 99 101 102
69 64 57 55 53 50 43 43 32 23 24 30 33 49 65 65 65 74 80 86 97 102 91 74 67 65 65 70 77 81 86 92 96 99 97 94 93 96 101 108 111 106 107
74 65 56 47 43 42 36 28 16 33 44 46 56 58 51 63 61 81 84 91 100 97 76 69 65 67 72 78 75 77 83 94 102 101 104 106 111 110 115 109 99 99 97
61 53 49 46 51 44 45 43 38 31 32 49 61 58 57 61 69 72 86 93 83 81 75 73 77 80 81 83 85 92 102 105 106 108 110 110 109 109 102 91 82 71 65
64 64 69 72 67 56 47 47 52 58 58 59 65 56 72 74 81 85 86 79 81 80 82 85 80 82 83 82 87 96 102 106 101 103 105 105 109 105 98 90 76 64 58
62 53 52 46 60 55 53 56 63 65 65 64 61 58 64 70 66 72 78 82 86 90 90 78 73 75 78 88 94 100 103 102 98 100 105 113 112 107 93 68 44 32 31
72 59 51 58 52 53 65 69 72 71 69 70 66 57 67 77 72 77 86 85 85 79 79 81 86 86 80 81 88 95 96 99 104 111 120 125 119 95 55 23 9 358 348
48 41 52 50 55 65 66 71 71 71 74 72 72 73 81 82 88 84 83 81 78 80 87 81 70 60 60 75 93 99 101 104 109 112 111 106 81 11 353 349 345 347 358
68 63 62 64 71 69 73 75 72 69 73 77 74 78 86 90 83 80 82 82 80 77 75 81 83 82 81 80 82 81 81 80 74 71 60 36 14 9 8 15 41 59 79
66 58 57 70 56 72 72 76 82 74 68 75 76 84 88 89 83 83 82 79 79 78 81 83 78 75 79 79 75 70 57 48 45 40 25 15 13 16 50 67 72 80 90
47 42 26 38 101 90 99 56 53 60 85 89 85 89 87 81 79 80 81 83 83 81 77 74 73 76 74 69 66 62 56 46 39 46 56 71 89 97 93 87 82 80 84
22 12 22 81 101 96 74 73 81 93 97 98 90 91 92 94 92 89 84 81 79 77 77 77 77 78 80 76 67 66 70 73 85 89 94 95 95 96 92 88 85 83 84